Location: Unspecified
(0.0000°N, 0.0000°E)
Time: 09:12:02
(UTC+00:00)

Transit 4A - Pass Details

Date: 16 December 2018
Orbit: 868 x 977 km, 66.8° (Epoch: 18 January)

Event Time Altitude Azimuth Distance (km) Brightness Sun altitude
Rises 00:18:58 0° 163° (SSE) 3,503 - -66.0°
Reaches altitude 10° 00:23:18 10° 133° (SE) 2,538 - -65.7°
Maximum altitude 00:25:29 12° 111° (ESE) 2,377 - -65.6°
Drops below altitude 10° 00:27:39 10° 89° (E) 2,518 - -65.4°
Sets 00:31:52 0° 59° (ENE) 3,442 - -65.1°
